[[{"header":{"parameterUnit":"m.s-1","parameterCategory":1,"la1":30.2992,"la2":30.254,"lo1":-89.0895,"lo2":-89.0443,"dy":0.0025,"dx":0.0025,"nx":19,"ny":19,"refTime":"2026-05-04T21:00:00:Z","depth":0,"parameterNumber":2,"parameterNumberName":"U-component_of_WINDS"},"data":[0,0,0,0.144,0.1439,0.1391,0.1391,0.132,0.1319,0,0,0,0,0,0,0,0,0,0,0,0.1449,0.1448,0.144,0.1439,0.1391,0.1391,0.132,0.1319,0,0,0,0,0,0,0,0,0,0,0,0.1449,0.1448,0.1447,0.1439,0.1391,0.1391,0.132,0.1359,0,0,0,0,0,0,0,0,0,0,0.1407,0.141,0.1448,0.1447,0.1438,0.1391,0.1391,0.1361,0.1357,0.1337,0,0.1319,0,0.1318,0.1313,0.1313,0,0,0,0.1442,0.1414,0.1406,0.1447,0.1438,0.1391,0.1414,0.1359,0.1354,0.1331,0.1318,0.1315,0.1317,0.1313,0.1313,0.1189,0.1188,0,0,0.1445,0.1437,0.141,0.1403,0.141,0.1415,0.1412,0.1356,0.1341,0.1318,0.1314,0.1315,0.1312,0.1312,0.1189,0.1188,0,0,0,0.145,0.1438,0.1432,0.1405,0.1398,0.1414,0.141,0.1343,0.1342,0.1313,0.1314,0.1312,0.1311,0.119,0.1189,0.1145,0,0,0,0.1452,0.1442,0.1433,0.1428,0.1398,0.137,0.1399,0.1346,0.134,0.1315,0.1312,0.131,0.1191,0.119,0.1148,0.1125,0,0,0,0.1454,0.1442,0.1433,0.1427,0.1407,0.1371,0.1367,0.1345,0.134,0.1313,0.131,0.1192,0.119,0.115,0.1129,0.109,0,0,0,0.1453,0.1393,0.1432,0.1366,0.1407,0.1344,0.1367,0.132,0.1292,0.1312,0.1191,0.1189,0.1151,0.1132,0.1093,0.1056,0.104,0,0,0.1373,0.1383,0.1345,0.1379,0.1307,0.1352,0.1274,0.1254,0.1259,0.1211,0.1209,0.1147,0.1129,0.1091,0.0952,0.0939,0,0,0,0.1317,0.129,0.1273,0.1246,0.1231,0.1216,0.121,0.1203,0.1164,0.1233,0.1122,0.1112,0.109,0.1072,0.1061,0.1043,0.1181,0.1181,0.1181,0.1192,0.1202,0.114,0.1144,0.1118,0.1113,0.1092,0.1082,0.1098,0.1072,0.1058,0.0973,0.0952,0.0944,0.0924,0.1039,0.1039,0.1039,0.1039,0.1076,0.1039,0.1064,0.1013,0.1024,0.098,0.0973,0.0987,0.0948,0.0984,0.0965,0.1004,0.093,0.0913,0.1036,0.1036,0.1037,0.1037,0.1037,0.0995,0.098,0.0973,0.0936,0.0906,0.0912,0.0874,0.0885,0.0894,0.0875,0.0862,0.0863,0.0865,0.0868,0.0868,0.0868,0.0867,0.0867,0.0867,0.0914,0.0909,0.0876,0.0855,0.084,0.0821,0.0816,0.0801,0.0787,0.0797,0.0797,0.0817,0.0921,0.0947,0.0862,0.0863,0.0864,0.0864,0.0865,0.0793,0.0823,0.0772,0.0756,0.0734,0.0704,0.0719,0.0687,0.0676,0.0656,0.068,0.0755,0.0766,0.0775,0.0797,0.0678,0.0678,0.0678,0.0678,0.0725,0.0732,0.0683,0.0658,0.0635,0.0643,0.0585,0.058,0.058,0.0574,0.0593,0.0622,0.0631,0.0636,0.0648,0.0668,0.052,0.052,0.052,0.0652,0.0657,0.0606,0.0607,0.0591,0.0576,0.0522,0.0491,0.0497,0.0514,0.0569,0.0576,0.0624,0.0639,0.0656,0.0674,0.0712,0,0]},{"header":{"parameterUnit":"m.s-1","parameterCategory":1,"la1":30.2992,"la2":30.254,"lo1":-89.0895,"lo2":-89.0443,"dy":0.0025,"dx":0.0025,"nx":19,"ny":19,"refTime":"2026-05-04T21:00:00:Z","depth":0,"parameterNumber":3,"parameterNumberName":"V-component_of_WINDS"},"data":[0,0,0,-0.1742,-0.1743,-0.1832,-0.1832,-0.1943,-0.1944,0,0,0,0,0,0,0,0,0,0,0,-0.1713,-0.1714,-0.1741,-0.1744,-0.1832,-0.1833,-0.1943,-0.1944,0,0,0,0,0,0,0,0,0,0,0,-0.1713,-0.1714,-0.1715,-0.1744,-0.1832,-0.1833,-0.1943,-0.1877,0,0,0,0,0,0,0,0,0,0,-0.1791,-0.1763,-0.1714,-0.1715,-0.1744,-0.1832,-0.1833,-0.1874,-0.1881,-0.1902,0,-0.192,0,-0.1934,-0.1952,-0.1952,0,0,0,-0.1745,-0.1757,-0.1783,-0.1715,-0.1745,-0.1832,-0.1793,-0.1878,-0.1886,-0.1912,-0.1922,-0.1926,-0.1936,-0.1952,-0.1953,-0.2069,-0.2069,0,0,-0.174,-0.1728,-0.1777,-0.1788,-0.1774,-0.179,-0.1795,-0.1883,-0.1893,-0.1922,-0.1928,-0.1938,-0.1953,-0.1954,-0.2068,-0.2069,0,0,0,-0.1725,-0.1725,-0.1748,-0.1784,-0.18,-0.1792,-0.1799,-0.1889,-0.1898,-0.193,-0.1939,-0.1954,-0.1955,-0.2068,-0.2068,-0.2081,0,0,0,-0.1722,-0.1716,-0.1746,-0.174,-0.1798,-0.1845,-0.1803,-0.1892,-0.1902,-0.1938,-0.1954,-0.1956,-0.2067,-0.2068,-0.2079,-0.2088,0,0,0,-0.1708,-0.1714,-0.1727,-0.1739,-0.1777,-0.1844,-0.1858,-0.1894,-0.1908,-0.1952,-0.1956,-0.2067,-0.2068,-0.2078,-0.2086,-0.2116,0,0,0,-0.169,-0.1736,-0.1727,-0.1781,-0.1776,-0.1851,-0.1858,-0.1914,-0.1954,-0.1954,-0.2067,-0.2068,-0.2078,-0.2085,-0.2114,-0.2139,-0.2148,0,0,-0.1741,-0.1741,-0.1775,-0.1769,-0.1843,-0.1838,-0.1914,-0.1962,-0.1977,-0.2037,-0.204,-0.208,-0.2086,-0.2116,-0.2202,-0.2208,0,0,0,-0.1787,-0.1811,-0.1833,-0.187,-0.1908,-0.1941,-0.1978,-0.1996,-0.2048,-0.2005,-0.2099,-0.2103,-0.2121,-0.2133,-0.2139,-0.2155,-0.2073,-0.2073,-0.2073,-0.1842,-0.186,-0.1916,-0.1944,-0.198,-0.2019,-0.205,-0.208,-0.2086,-0.2108,-0.2126,-0.2176,-0.219,-0.2195,-0.2212,-0.214,-0.214,-0.2141,-0.2141,-0.1919,-0.1956,-0.1964,-0.2022,-0.204,-0.2089,-0.2128,-0.2131,-0.2179,-0.2164,-0.218,-0.2162,-0.2202,-0.2218,-0.2142,-0.2141,-0.2141,-0.2141,-0.2141,-0.1958,-0.1978,-0.1999,-0.2056,-0.2097,-0.2124,-0.2171,-0.2186,-0.22,-0.2216,-0.2237,-0.2237,-0.2239,-0.2225,-0.2225,-0.2226,-0.2226,-0.2226,-0.2226,-0.1989,-0.2012,-0.205,-0.2094,-0.2121,-0.2157,-0.2197,-0.2224,-0.2257,-0.2264,-0.2264,-0.2269,-0.2203,-0.2186,-0.2229,-0.2228,-0.2228,-0.2228,-0.2227,-0.2061,-0.2047,-0.2105,-0.2131,-0.2185,-0.2226,-0.2245,-0.2298,-0.2322,-0.2345,-0.2346,-0.2295,-0.2296,-0.2291,-0.2278,-0.2342,-0.2342,-0.2342,-0.2342,-0.2093,-0.2096,-0.2158,-0.22,-0.2243,-0.2266,-0.2331,-0.2363,-0.2393,-0.241,-0.2403,-0.2385,-0.238,-0.2385,-0.2378,-0.2365,-0.2451,-0.2451,-0.2451,-0.2139,-0.2146,-0.2199,-0.2228,-0.2272,-0.2309,-0.2372,-0.242,-0.2452,-0.2456,-0.2423,-0.2418,-0.2391,-0.2381,-0.2384,-0.2373,-0.235,0,0]}]]